Location: Marietta
(33.9530°N, 84.5500°W)
Time: 18:04:46
(UTC-04:00)

Tiangong 2 - Visible Passes

Search period start: 19 June 2018 00:00
Search period end: 29 June 2018 00:00
Orbit: 291 x 297 km, 42.8° (Epoch: 19 June)

Date Brightness Start Highest point End Pass type
(mag) Time Alt. Az. Time Alt. Az. Time Alt. Az.
22 Jun 3.3 05:55:33 10° SSE 05:56:17 11° SE 05:57:02 10° ESE visible
25 Jun 3.3 04:39:55 12° ESE 04:39:55 12° ESE 04:40:32 10° ESE visible
26 Jun 2.1 04:45:14 28° ESE 04:45:14 28° ESE 04:47:02 10° E visible
27 Jun 0.5 04:50:24 75° E 04:50:24 75° E 04:52:47 10° ENE visible
28 Jun 1.3 04:55:26 39° NW 04:55:45 41° NNW 04:58:12 10° NE visible
